STARLINK-4214, 52877

Orbit data source: Space-Track

STARLINK-4214, 52877 is a payload satellite owned by SpaceX/Seattle (US) in LEO that was launched on Fri, 17 Jun 2022 UTC via an FALCON 9 launch vehicle from the Air Force Eastern Test Range (AFETR). Payload-class satellites include a variety of spacecraft equipped with specific instruments for various scientific and technological missions. These include communications satellites like Starlink; space stations such as the ISS; scientific satellites like the Hubble; Earth observation satellites from companies like Planet Labs, Umbra, and HawkEye 360; GPS; miniature CubeSats for education and research; and military/defense satellites.

Loading next visibility...
Identifier
52877, 2022-062AZ
Orbit
LEO
Country
Flag of USUS
Related business
Manufacturer
SpaceX/Seattle
Mission
Operational Commercial Communications
Bus & Motor
STARLINK, Unknown motor
Mass
297 kg wet, ~275 kg dry
Launch date (UTC)
2022-06-17 (4 years ago)
Launch vehicle
FALCON 9
Launch site
Air Force Eastern Test Range (AFETR)
Object type
Payload
Rocket body
Debris
Shape & HBR
Box + 1 Pan, 10.1 m
Radar Cross Section
13.562 m², Large (>1 m²)

Expand to show TLE details & history
Last TLE update: 3 days ago

TLE from 3 days ago
0 STARLINK-4214
1 52877U 22062AZ  26170.66967441 -.00003613  00000-0 -20909-3 0  9998
2 52877  53.1599 276.2107 0001061  88.5144 271.5969 15.08825016221466
Epoch: 2026-06-19T16:04Z
TLE epoch observation values (Epoch: 2026-06-19T16:04:19.869Z)
Latitude
Longitude
127.23259°
Altitude
540.66 km
Speed
7.593 km/s
True Right ascension
18h 24m 50s
True Declination
0° 00' 00"
Sunlit
Object was in full shadow at epoch
Visualization orbit readout
Latitude
Unknown
Longitude
Unknown
Altitude
Unknown
Speed
Unknown
Apparent Right ascension
Unknown
Apparent Declination
Unknown
Sunlit
N/A
Visualization observer readout
Local Sidereal Time
21:24:26
Azimuth
Unknown
Elevation
Unknown
Doppler factor
Unknown
Orbital elements
Apogee altitude
540.777 km
Perigee altitude
539.309 km
Semi-major axis
6,918.18 km
Eccentricity
0.00011
Inclination
53.1599°
RAAN
276.2107°
Arg. of periapsis
88.5144°
True anomaly
271.58475°
Mean anomaly
271.5969°
Eccentric anomaly
271.59082°
Mean motion
3.77186 °/min
Orbital period
95.44 mins
BSTAR
-0.00020909
Loading maneuver chart data...
Computing Atmospheric mass density...
Loading historical data...
Loading historical data...
Loading historical data...
Loading historical data...
Loading historical data...
Loading historical data...
Loading historical data...

Documentation

Showing up to 5 results
|